Meteo pe oră la Dahovskaya

Astăzi, 23 Aprilie, Vineri

Timp Temperatura Precipitaţii Vânt Presiune Umiditate
00:00 +8°C° 0 mm 1 m/s 724 mmHg 94%
01:00 +7°C° 0 mm 1 m/s 724 mmHg 94%
02:00 +7°C° 0 mm 1 m/s 724 mmHg 94%
03:00 +6°C° 0 mm 1 m/s 724 mmHg 94%
04:00 +6°C° 0 mm 1 m/s 724 mmHg 92%
05:00 +5°C° 0 mm 2 m/s 724 mmHg 91%
06:00 +5°C° 0 mm 2 m/s 724 mmHg 90%
07:00 +9°C° 0 mm 1 m/s 724 mmHg 80%
08:00 +11°C° 0 mm 1 m/s 724 mmHg 70%
09:00 +14°C° 0 mm 1 m/s 724 mmHg 60%
10:00 +15°C° 0 mm 1 m/s 724 mmHg 54%
11:00 +16°C° 0 mm 1 m/s 723 mmHg 48%
12:00 +17°C° 0 mm 2 m/s 723 mmHg 41%
13:00 +18°C° 0 mm 2 m/s 723 mmHg 42%
14:00 +18°C° 0 mm 2 m/s 723 mmHg 42%
15:00 +18°C° 0 mm 2 m/s 723 mmHg 43%
16:00 +17°C° 0 mm 2 m/s 722 mmHg 50%
17:00 +16°C° 0 mm 2 m/s 722 mmHg 58%
18:00 +15°C° 0 mm 1 m/s 722 mmHg 66%
19:00 +13°C° 0 mm 1 m/s 722 mmHg 71%
20:00 +11°C° 0 mm 1 m/s 722 mmHg 77%
21:00 +10°C° 0 mm 1 m/s 721 mmHg 83%
22:00 +10°C° 0 mm 1 m/s 721 mmHg 79%
23:00 +10°C° 0 mm 1 m/s 721 mmHg 74%

Mâine, 24 Aprilie, Sâmbătă

Timp Temperatura Precipitaţii Vânt Presiune Umiditate
00:00 +10°C° 0 mm 1 m/s 720 mmHg 70%
01:00 +10°C° 0 mm 1 m/s 721 mmHg 70%
02:00 +10°C° 0 mm 1 m/s 721 mmHg 70%
03:00 +10°C° 0 mm 1 m/s 721 mmHg 70%
04:00 +10°C° 0 mm 1 m/s 721 mmHg 70%
05:00 +9°C° 0 mm 1 m/s 721 mmHg 70%
06:00 +9°C° 0 mm 1 m/s 721 mmHg 71%
07:00 +10°C° 0 mm 1 m/s 721 mmHg 67%
08:00 +10°C° 0 mm 2 m/s 721 mmHg 64%
09:00 +12°C° 0 mm 2 m/s 721 mmHg 60%
10:00 +14°C° 0 mm 2 m/s 721 mmHg 57%
11:00 +14°C° 0 mm 3 m/s 721 mmHg 53%
12:00 +16°C° 0 mm 3 m/s 721 mmHg 49%
13:00 +17°C° 0 mm 3 m/s 721 mmHg 50%
14:00 +17°C° 0 mm 4 m/s 721 mmHg 51%
15:00 +17°C° 0 mm 4 m/s 721 mmHg 53%
16:00 +16°C° 0 mm 3 m/s 721 mmHg 57%
17:00 +16°C° 0 mm 3 m/s 721 mmHg 61%
18:00 +14°C° 0 mm 3 m/s 721 mmHg 65%
19:00 +13°C° 0 mm 2 m/s 722 mmHg 74%
20:00 +11°C° 0 mm 1 m/s 722 mmHg 82%
21:00 +9°C° 0 mm 1 m/s 723 mmHg 90%
22:00 +9°C° 0 mm 1 m/s 723 mmHg 89%
23:00 +9°C° 0 mm 1 m/s 722 mmHg 87%

Poimâine, 25 Aprilie, Duminică

Timp Temperatura Precipitaţii Vânt Presiune Umiditate
00:00 +9°C° 0 mm 1 m/s 722 mmHg 86%
01:00 +9°C° 0 mm 1 m/s 722 mmHg 85%
02:00 +9°C° 0 mm 1 m/s 722 mmHg 85%
03:00 +8°C° 0 mm 1 m/s 722 mmHg 84%
04:00 +9°C° 0 mm 1 m/s 722 mmHg 84%
05:00 +9°C° 0 mm 1 m/s 721 mmHg 84%
06:00 +9°C° 0 mm 1 m/s 721 mmHg 83%
07:00 +10°C° 0 mm 1 m/s 721 mmHg 78%
08:00 +12°C° 0 mm 1 m/s 720 mmHg 73%
09:00 +13°C° 0 mm 2 m/s 720 mmHg 67%
10:00 +14°C° 0 mm 2 m/s 720 mmHg 65%
11:00 +15°C° 0 mm 2 m/s 719 mmHg 62%
12:00 +17°C° 0 mm 3 m/s 719 mmHg 59%
13:00 +17°C° 0 mm 3 m/s 718 mmHg 62%
14:00 +16°C° 0 mm 3 m/s 718 mmHg 64%
15:00 +16°C° 0 mm 3 m/s 717 mmHg 66%
16:00 +14°C° 0 mm 3 m/s 717 mmHg 72%
17:00 +14°C° 0 mm 2 m/s 717 mmHg 77%
18:00 +14°C° 0 mm 2 m/s 716 mmHg 82%
19:00 +13°C° 0 mm 2 m/s 716 mmHg 86%
20:00 +12°C° 0 mm 1 m/s 717 mmHg 89%
21:00 +11°C° 0 mm 1 m/s 717 mmHg 93%
22:00 +11°C° 0.3 mm 1 m/s 716 mmHg 93%
23:00 +11°C° 0.3 mm 1 m/s 716 mmHg 94%

26 Aprilie, Luni

Timp Temperatura Precipitaţii Vânt Presiune Umiditate
00:00 +11°C° 0.3 mm 1 m/s 716 mmHg 95%
01:00 +11°C° 0 mm 1 m/s 716 mmHg 95%
02:00 +11°C° 0 mm 1 m/s 716 mmHg 96%
03:00 +9°C° 0 mm 0 m/s 716 mmHg 96%
04:00 +9°C° 0.2 mm 0 m/s 716 mmHg 97%
05:00 +9°C° 0.2 mm 0 m/s 715 mmHg 97%
06:00 +9°C° 0.2 mm 0 m/s 715 mmHg 98%
07:00 +10°C° 1 mm 1 m/s 715 mmHg 98%
08:00 +10°C° 1 mm 1 m/s 715 mmHg 98%
09:00 +10°C° 1 mm 1 m/s 715 mmHg 98%
10:00 +10°C° 2.1 mm 1 m/s 715 mmHg 98%
11:00 +10°C° 2.1 mm 1 m/s 715 mmHg 98%
12:00 +10°C° 2.1 mm 1 m/s 716 mmHg 98%
13:00 +10°C° 2 mm 1 m/s 716 mmHg 97%
14:00 +11°C° 2 mm 1 m/s 716 mmHg 96%
15:00 +11°C° 2 mm 1 m/s 716 mmHg 95%
16:00 +10°C° 2.1 mm 1 m/s 716 mmHg 97%
17:00 +10°C° 2.1 mm 1 m/s 716 mmHg 98%
18:00 +9°C° 2.1 mm 1 m/s 716 mmHg 99%
19:00 +9°C° 0.9 mm 1 m/s 717 mmHg 99%
20:00 +9°C° 0.9 mm 1 m/s 717 mmHg 99%
21:00 +9°C° 0.9 mm 1 m/s 718 mmHg 99%
22:00 +9°C° 0.3 mm 1 m/s 718 mmHg 99%
23:00 +9°C° 0.3 mm 1 m/s 718 mmHg 99%

27 Aprilie, Marţi

Timp Temperatura Precipitaţii Vânt Presiune Umiditate
00:00 +9°C° 0.3 mm 1 m/s 718 mmHg 99%
01:00 +8°C° 0.4 mm 1 m/s 718 mmHg 99%
02:00 +8°C° 0.4 mm 1 m/s 719 mmHg 98%
03:00 +8°C° 0.4 mm 1 m/s 719 mmHg 98%
04:00 +7°C° 0.5 mm 0 m/s 719 mmHg 98%
05:00 +6°C° 0.5 mm 0 m/s 719 mmHg 98%
06:00 +6°C° 0.5 mm 0 m/s 719 mmHg 98%
07:00 +7°C° 0 mm 0 m/s 719 mmHg 94%
08:00 +8°C° 0 mm 0 m/s 719 mmHg 91%
09:00 +10°C° 0 mm 1 m/s 719 mmHg 88%
10:00 +10°C° 0 mm 1 m/s 719 mmHg 85%
11:00 +11°C° 0 mm 1 m/s 718 mmHg 83%
12:00 +12°C° 0 mm 1 m/s 718 mmHg 81%
13:00 +12°C° 0 mm 1 m/s 718 mmHg 79%
14:00 +13°C° 0 mm 1 m/s 718 mmHg 77%
15:00 +13°C° 0 mm 1 m/s 718 mmHg 75%
16:00 +13°C° 0 mm 1 m/s 718 mmHg 76%
17:00 +13°C° 0 mm 1 m/s 718 mmHg 77%
18:00 +13°C° 0 mm 1 m/s 718 mmHg 78%
19:00 +12°C° 0 mm 1 m/s 719 mmHg 82%
20:00 +10°C° 0 mm 1 m/s 719 mmHg 87%
21:00 +9°C° 0 mm 1 m/s 720 mmHg 91%
22:00 +8°C° 0 mm 1 m/s 720 mmHg 92%
23:00 +8°C° 0 mm 1 m/s 720 mmHg 92%

28 Aprilie, Miercuri

Timp Temperatura Precipitaţii Vânt Presiune Umiditate
00:00 +7°C° 0 mm 1 m/s 720 mmHg 93%
01:00 +7°C° 0 mm 1 m/s 721 mmHg 92%
02:00 +7°C° 0 mm 1 m/s 721 mmHg 92%
03:00 +7°C° 0 mm 1 m/s 721 mmHg 91%
04:00 +7°C° 0 mm 1 m/s 721 mmHg 89%
05:00 +7°C° 0 mm 1 m/s 721 mmHg 87%
06:00 +7°C° 0 mm 1 m/s 721 mmHg 85%
07:00 +9°C° 0 mm 1 m/s 721 mmHg 77%
08:00 +11°C° 0 mm 1 m/s 721 mmHg 68%
09:00 +14°C° 0 mm 2 m/s 720 mmHg 60%
10:00 +15°C° 0 mm 2 m/s 720 mmHg 56%
11:00 +17°C° 0 mm 2 m/s 720 mmHg 52%
12:00 +18°C° 0 mm 2 m/s 720 mmHg 47%
13:00 +18°C° 0 mm 2 m/s 719 mmHg 48%
14:00 +19°C° 0 mm 3 m/s 719 mmHg 49%
15:00 +19°C° 0 mm 3 m/s 719 mmHg 50%
16:00 +18°C° 0 mm 2 m/s 718 mmHg 58%
17:00 +16°C° 0 mm 2 m/s 718 mmHg 67%
18:00 +15°C° 0 mm 2 m/s 718 mmHg 75%
19:00 +14°C° 0 mm 2 m/s 718 mmHg 77%
20:00 +13°C° 0 mm 2 m/s 718 mmHg 78%
21:00 +12°C° 0 mm 2 m/s 718 mmHg 80%
22:00 +10°C° 0 mm 2 m/s 718 mmHg 78%
23:00 +10°C° 0 mm 2 m/s 717 mmHg 76%
Arată mai mult

Formular de consimțământ

Meteoprog și furnizorii noștri de servicii pot stoca și accesa date personale, precum cookies, identificatori de dispozitiv sau alte tehnologii similare pe dispozitivul dumneavoastră și procesa astfel de date pentru a personaliza conținutul și reclamele, dar și pentru a oferi caracteristici de social media și pentru a analiza traficul.

  • Stocarea și/sau accesarea informațiilor pe dispozitivul dumneavoastră

    Cookies, identificatori de dispozitiv sau alte informații pot fi stocate sau accesate pe dispozitiv în scopurile indicate mai sus.

  • Reclame și conținut personalizat, evaluarea reclamelor și a conținutului, informații despre audiențe și dezvoltarea produselor

    Reclamele și conținutul pot fi personalizate pe baza unui profil. Pot fi adăugate date suplimentare pentru a personaliza mai bine reclamele și conținutul. Performanța reclamelor și conținutului poate fi măsurată. Pot fi obținute informații despre utilizatorii care au văzut reclamele și conținutul. Aceste date pot fi utilizate pentru a dezvolta sau îmbunătăți experiența utilizatorilor, sistemele și software-ul.

Dând clic pe ‘Sunt de acord’, permiteți utilizarea cookie-urilor menționate, a identificatorilor de dispozitiv, balizelor web sau altor tehnologii similare. Setările pot fi modificate din browser-ul dispozitivului dumneavoastră.

În anumite scopuri, interesele legitime pot prima asupra consimțământului. Puteți citi mai multe informații în acest sens în Politica privind Confidențialitatea Datelor și Cookie.